Location: Arrodets-la-Barthe
(43.0306°N, 0.2829°E)
Time: 11:13:58
(UTC+00:00)

Iridium 4 Rocket - Pass Details

Date: 03 June 2022
Orbit: 585 x 902 km, 86.9° (Epoch: 01 July)

Event Time Altitude Azimuth Distance (km) Brightness Sun altitude
Rises 21:18:18 0° 8° (N) 3,119 7.4 -15.1°
Reaches altitude 10° 21:20:45 10° 19° (NNE) 2,247 6.4 -15.3°
Maximum altitude 21:25:14 31° 81° (E) 1,333 4.5 -15.8°
Enters shadow 21:27:25 23° 121° (ESE) 1,633 4.7 -16.1°
